Temperature
18 18 18 18 18 17 18 17 17 17 17 18 18 18 18 18 17 18 18 18 18 18 17 17 17 17 17 17 17 17 17 16 16 16 16 16 16 16 16 16 16 16 16
18 18 18 18 17 17 17 17 17 17 17 17 18 18 18 18 17 17 17 17 17 17 17 17 17 17 17 17 17 17 17 16 16 16 16 16 16 16 16 16 16 16 16
18 18 18 18 17 17 17 17 17 17 17 17 17 17 17 17 17 17 17 17 17 17 17 17 17 17 17 17 17 17 17 17 16 16 16 16 16 16 16 16 16 16 16
17 17 17 17 17 17 17 17 17 17 17 17 17 17 17 17 17 17 17 17 17 17 17 17 17 17 17 17 17 17 17 17 16 16 16 16 16 16 16 16 16 16 16
17 17 17 17 17 17 17 17 17 17 17 17 17 17 17 17 17 17 17 17 17 17 17 17 17 16 17 17 16 16 16 16 16 16 16 16 16 16 16 16 16 16 16
17 17 17 17 17 17 17 17 17 17 17 17 18 17 17 17 17 17 17 17 17 17 17 16 16 16 16 16 16 16 16 16 16 16 16 16 16 16 16 16 16 16 16
17 17 17 17 17 17 17 17 17 17 17 17 17 17 17 17 17 17 17 17 17 17 17 16 16 16 16 16 16 16 16 16 16 16 16 16 16 16 16 16 16 16 16
17 17 17 17 17 17 17 17 17 17 17 17 17 18 18 18 18 18 17 17 17 17 17 17 16 16 16 16 16 16 16 16 16 16 16 16 16 16 16 16 16 15 15
17 17 17 17 17 17 17 17 17 17 17 17 17 18 18 18 18 18 17 17 17 17 17 17 16 16 16 16 16 16 16 16 16 16 16 16 16 16 15 15 15 15 15
17 17 17 17 17 17 17 17 17 17 17 17 17 18 18 18 18 18 17 17 17 17 17 17 17 16 16 16 16 16 16 16 16 16 16 15 15 15 15 15 15 15 15
17 17 17 17 17 17 17 17 17 17 17 17 17 18 18 18 18 18 18 17 17 17 17 17 17 16 16 16 16 16 16 16 16 16 15 15 15 15 15 15 15 15 15
17 17 17 17 17 17 17 17 17 17 17 17 17 17 17 18 18 18 18 18 18 18 17 17 17 17 16 16 16 16 16 16 16 16 15 15 15 15 15 15 15 15 15
17 17 17 17 17 17 17 16 17 17 17 17 17 17 17 17 18 18 18 18 18 18 17 17 17 17 16 16 16 16 16 16 16 16 15 15 15 15 15 15 15 15 15
17 17 17 17 17 17 16 16 16 16 16 17 17 17 17 17 17 18 18 18 18 18 18 18 17 17 17 17 16 16 16 16 16 16 15 15 15 15 15 15 15 15 15
17 17 17 17 17 17 16 16 16 16 16 16 16 16 17 17 17 17 17 17 17 18 18 18 18 17 17 17 16 16 16 16 16 15 15 15 15 15 15 15 15 15 15
17 17 17 17 17 17 17 16 16 16 16 16 16 16 16 16 16 17 17 17 17 17 17 18 17 17 17 17 16 16 16 16 15 15 15 15 15 15 15 15 15 15 15
17 17 17 17 17 17 17 17 16 16 16 16 16 16 16 16 16 16 16 16 17 17 17 17 17 17 17 17 16 16 16 16 15 15 16 16 16 16 15 15 15 15 15
17 17 17 17 17 16 16 17 16 16 16 16 16 16 16 16 16 16 16 16 16 16 16 17 17 17 17 16 16 16 16 16 15 16 16 16 16 16 16 16 16 15 15
17 17 17 17 17 16 16 16 16 16 16 16 16 16 16 16 16 16 16 16 16 16 16 16 16 16 16 16 16 16 16 15 15 15 16 16 16 16 16 16 16 15 15
17 17 17 17 17 17 16 16 16 16 16 16 16 16 16 15 15 15 15 15 15 15 15 15 15 16 16 16 16 15 15 15 15 15 16 16 16 16 16 16 15 15 15
17 17 17 17 17 16 16 16 16 16 16 16 16 16 15 15 15 15 15 15 15 15 15 15 15 15 15 15 15 15 15 15 15 15 15 15 15 15 15 15 15 15 15
17 16 16 16 16 16 16 16 16 16 16 16 16 15 15 15 15 15 15 15 15 15 15 15 15 15 15 15 15 15 15 15 15 15 15 15 15 15 15 15 15 15 15
16 16 16 16 16 16 16 16 16 16 16 15 15 15 15 15 15 15 15 15 15 15 14 14 14 14 14 14 14 14 14 14 14 15 14 15 15 15 15 15 15 15 15
16 16 16 16 16 16 16 16 16 16 15 15 15 15 15 15 15 14 14 14 14 14 14 14 14 14 14 14 14 14 14 14 14 14 14 14 14 14 14 14 14 14 14
16 16 16 15 15 15 15 15 15 15 15 15 14 14 14 14 14 14 14 14 14 14 14 13 13 13 14 13 13 13 13 13 13 13 13 13 13 13 13 13 14 14 14
15 15 15 15 15 15 15 15 14 14 14 14 14 14 14 13 13 13 13 13 13 13 13 13 13 13 13 13 13 12 12 12 12 12 13 12 12 12 12 13 13 13 13
Wind_Speed
4 5 3 4 5 5 4 2 1 2 1 1 1 3 4 5 9 12 12 14 13 11 10 9 9 8 9 9 9 8 8 8 8 8 8 8 8 8 8 7 7 7 7
5 5 4 2 3 4 4 2 3 2 1 0 1 3 2 4 7 11 13 12 12 11 10 9 9 8 8 8 8 8 9 8 8 8 8 8 8 8 8 7 7 7 7
8 6 4 3 3 5 5 3 3 2 3 2 2 2 2 2 5 7 11 12 12 11 11 10 9 9 9 8 8 8 9 9 9 9 8 9 8 8 8 8 8 7 7
9 5 4 3 5 5 3 2 2 2 1 1 2 1 2 3 4 5 7 10 12 12 12 12 11 10 9 9 9 9 9 9 10 10 10 10 10 9 9 8 8 9 8
9 5 3 4 5 3 2 3 3 1 1 1 2 2 2 3 3 5 5 7 9 11 13 14 13 12 11 10 10 10 10 9 10 10 11 11 11 11 11 10 10 10 10
8 5 4 4 4 2 2 2 3 1 1 1 2 3 3 4 3 3 4 6 8 10 12 13 13 12 12 11 11 11 11 10 10 11 11 11 11 11 11 11 11 11 11
8 4 4 4 2 2 3 4 3 2 3 2 1 1 3 4 4 4 3 3 5 7 9 12 13 11 11 13 12 12 11 11 11 11 11 11 11 11 12 12 13 12 12
8 6 5 5 3 3 3 2 2 1 2 2 1 1 2 2 2 5 4 4 3 5 7 10 10 10 11 11 12 13 12 11 11 11 11 11 11 11 12 12 13 13 13
8 5 6 4 4 4 4 3 3 3 1 1 2 1 0 1 2 2 5 4 4 3 3 6 9 10 10 11 11 13 12 12 11 11 10 11 11 11 11 11 12 13 14
7 7 6 4 3 3 5 5 5 3 2 2 2 2 1 1 0 2 2 4 5 4 2 3 5 8 9 10 11 12 13 11 10 10 10 10 10 11 11 11 12 12 13
6 7 6 5 4 3 4 3 3 2 1 2 2 2 2 2 2 2 2 3 3 4 5 3 3 6 9 12 13 13 14 13 11 10 9 9 9 10 10 11 11 11 11
6 6 6 5 4 3 4 3 2 3 2 2 2 2 1 2 2 2 2 3 4 4 5 4 4 5 8 11 13 16 16 15 13 11 10 9 10 10 10 10 11 11 11
6 7 7 5 4 4 4 4 4 3 3 2 3 3 2 3 1 1 1 2 2 2 3 4 4 6 9 10 12 18 17 16 14 13 12 11 10 11 11 11 11 11 11
7 7 7 6 5 5 6 4 4 4 3 3 5 3 3 4 2 2 1 1 2 2 4 5 5 6 8 10 14 19 15 17 16 15 14 13 12 11 12 11 12 12 12
7 9 8 8 7 6 5 5 4 4 3 4 5 5 4 4 3 3 2 2 2 2 2 3 3 5 8 10 15 15 12 17 18 17 16 15 15 14 14 13 14 13 13
6 8 8 8 7 7 6 5 4 4 4 4 4 4 4 4 3 3 3 3 2 2 3 1 2 3 4 7 15 14 12 15 20 20 19 19 18 17 17 16 15 15 15
7 7 7 8 8 7 7 6 6 5 6 6 6 6 5 5 4 4 3 3 3 3 4 3 2 2 4 4 6 9 10 12 16 22 24 23 22 21 20 19 18 18 17
7 7 7 8 8 8 7 7 8 7 7 7 7 6 6 6 6 5 4 4 3 3 3 5 3 2 3 5 6 6 7 11 13 18 26 26 25 24 23 22 21 20 20
7 7 8 8 7 7 7 7 8 7 7 7 7 7 6 6 6 5 5 5 4 5 4 4 5 4 3 5 5 6 7 6 11 14 19 25 27 26 25 25 24 24 23
7 7 7 7 6 6 5 6 7 7 6 6 6 6 6 6 6 6 6 6 6 6 5 5 5 5 4 4 4 5 5 5 7 10 10 14 21 26 27 27 26 26 26
7 6 5 5 5 5 6 6 6 7 6 6 6 6 6 6 6 5 5 4 5 5 5 5 6 5 5 3 4 4 6 5 6 6 5 6 7 10 16 22 26 27 28
5 5 5 5 5 5 4 4 4 5 5 6 6 6 6 5 6 7 8 7 5 6 6 5 6 6 6 4 4 4 4 5 5 4 3 5 5 6 7 13 20 25 28
5 4 4 4 3 1 1 3 4 4 4 4 4 5 6 6 5 5 7 10 9 10 8 6 7 7 6 5 4 5 5 5 6 4 4 7 6 7 7 14 16 19 24
4 4 3 3 2 1 0 1 2 3 3 3 3 3 3 4 4 2 5 6 6 7 8 8 7 8 8 5 5 5 6 7 7 6 6 8 7 7 8 9 15 17 19
3 3 3 3 3 2 3 3 1 1 1 2 2 2 1 1 3 3 4 5 5 5 7 9 10 11 12 11 8 5 6 6 8 8 6 7 7 7 6 6 11 14 16
3 3 3 4 5 5 7 6 3 1 2 2 1 1 3 3 4 4 3 4 5 5 5 6 7 9 10 11 12 9 8 8 8 7 5 5 6 5 6 5 5 7 9
Wind_Direction
149 134 128 149 166 156 164 199 128 93 83 169 158 107 70 84 106 118 136 144 145 150 153 155 156 158 162 162 161 164 164 162 161 161 162 163 163 163 160 157 157 153 149
137 127 137 163 161 154 149 159 133 133 163 116 71 97 101 99 106 128 144 152 156 160 164 165 165 166 170 173 175 176 174 176 175 174 176 175 173 174 175 174 172 171 167
141 145 152 175 157 137 137 156 156 164 177 165 125 123 129 115 127 134 147 157 165 172 174 176 178 177 178 182 184 184 182 184 185 187 188 188 186 185 185 188 188 187 186
149 158 159 160 149 150 158 140 197 188 149 143 141 173 136 143 142 161 166 165 170 176 181 186 186 186 187 190 191 191 191 193 194 197 198 199 199 198 198 199 201 201 201
157 166 142 132 162 162 162 182 155 144 148 159 169 174 171 162 152 188 178 176 173 170 174 185 190 191 194 198 200 198 196 196 199 203 206 207 207 207 208 209 209 209 210
162 166 144 150 179 159 143 99 101 111 165 230 226 166 186 165 177 180 190 182 177 177 175 177 184 195 201 203 203 202 201 201 204 207 211 213 213 213 214 215 216 216 216
161 172 138 143 172 146 146 152 149 192 216 204 211 188 197 191 180 176 187 171 177 177 176 168 181 186 190 204 206 206 207 209 210 212 215 216 217 217 218 221 221 221 222
164 172 144 166 167 147 150 158 148 216 230 186 203 205 193 190 208 187 167 182 186 181 180 178 180 183 188 186 201 207 209 211 213 215 217 218 218 219 220 223 225 226 227
170 159 154 165 166 166 163 182 194 207 244 231 213 225 228 182 187 188 189 176 173 188 186 172 180 183 187 182 185 198 204 209 214 217 217 218 219 221 224 226 227 230 232
165 163 162 161 167 170 160 192 191 202 210 247 228 207 217 120 192 167 198 171 176 182 203 212 182 180 185 172 178 182 190 195 203 211 216 217 219 223 227 230 233 234 235
168 168 165 160 172 187 164 172 149 190 226 248 261 221 205 200 236 202 197 180 188 188 189 197 179 186 184 172 177 180 184 188 194 202 209 216 220 225 232 235 236 237 239
176 169 167 167 183 182 159 151 164 196 246 303 316 306 242 223 231 224 206 201 196 194 184 180 178 187 193 185 189 182 183 188 192 198 207 216 223 228 233 235 237 239 241
178 175 175 175 185 169 162 169 184 224 214 243 281 295 303 279 280 277 232 235 213 184 178 186 190 193 203 182 173 175 183 189 196 203 210 218 225 231 234 236 237 240 243
177 166 170 176 185 183 185 177 201 205 203 221 245 260 303 299 304 293 285 275 256 226 198 203 188 187 192 165 172 178 187 195 201 208 215 221 227 233 236 239 242 244 245
170 166 173 179 188 192 188 177 219 218 185 210 239 230 239 275 270 278 287 278 264 267 245 210 179 185 177 166 172 187 195 202 208 212 219 225 229 233 237 241 243 244 246
176 165 177 182 187 187 191 197 216 210 203 221 240 250 232 266 272 263 270 276 272 275 277 261 214 190 180 183 179 193 210 209 211 217 222 227 231 234 237 239 241 243 245
173 177 186 187 190 190 193 201 220 209 209 222 234 230 224 254 284 292 268 258 260 259 269 275 257 199 167 171 168 212 225 214 214 221 225 228 230 233 236 238 241 243 245
183 187 191 192 198 199 196 200 219 221 216 220 229 233 228 234 235 263 283 278 265 258 257 277 277 263 210 194 188 213 234 235 231 230 226 227 228 231 234 237 240 242 244
190 194 195 197 204 203 201 204 216 226 228 226 225 227 229 234 235 239 248 268 274 264 235 252 264 253 240 217 206 219 238 250 257 253 229 226 228 231 234 237 240 242 244
193 199 195 198 203 208 210 213 217 221 227 231 229 230 231 230 229 237 246 250 265 273 268 259 263 257 244 233 210 217 241 243 252 261 250 233 229 232 236 240 242 244 245
196 196 191 196 203 213 221 219 219 223 220 230 234 232 233 230 226 223 245 247 257 260 264 259 262 265 258 247 233 228 244 252 244 239 245 242 226 227 235 241 244 246 245
191 187 189 190 201 220 226 215 220 238 223 228 240 241 242 231 222 220 235 245 247 253 260 264 265 265 267 263 259 257 255 263 266 248 246 260 245 239 234 236 240 240 241
186 185 189 190 194 233 229 191 207 236 242 237 245 249 253 256 227 225 233 238 244 243 237 253 268 275 284 291 291 285 281 278 272 277 287 275 268 263 256 261 254 243 239
173 179 176 170 159 164 181 206 226 224 256 269 268 265 259 288 303 290 262 248 244 244 239 238 249 260 270 281 278 275 276 276 270 264 255 264 267 266 271 270 267 261 250
163 166 155 143 123 77 70 64 36 253 281 296 310 324 315 297 325 314 281 273 265 262 254 248 243 249 253 258 257 263 266 267 272 271 260 261 266 270 271 273 277 273 263
127 122 121 111 103 85 66 59 32 356 338 328 323 15 47 33 0 351 311 289 279 283 289 286 267 263 257 255 246 237 249 259 268 272 270 274 276 280 278 271 275 282 276
Height
1549 1551 1553 1554 1556 1558 1559 1560 1562 1563 1564 1566 1567 1568 1569 1569 1570 1570 1571 1572 1573 1574 1576 1577 1578 1579 1580 1581 1582 1583 1585 1586 1588 1589 1590 1591 1592 1594 1595 1596 1597 1597 1598
1549 1550 1552 1554 1556 1557 1559 1560 1561 1563 1564 1565 1567 1568 1569 1569 1570 1570 1571 1572 1573 1574 1575 1576 1577 1578 1579 1581 1582 1583 1585 1586 1587 1588 1590 1591 1592 1593 1594 1595 1596 1597 1598
1548 1550 1552 1554 1555 1557 1558 1560 1561 1562 1564 1565 1566 1568 1568 1569 1570 1571 1572 1572 1573 1574 1575 1576 1577 1578 1579 1580 1581 1582 1584 1585 1587 1588 1589 1590 1591 1592 1594 1595 1596 1597 1598
1547 1549 1551 1553 1555 1556 1558 1559 1561 1562 1564 1565 1566 1567 1568 1569 1570 1571 1572 1572 1573 1573 1574 1575 1576 1577 1578 1579 1580 1581 1583 1584 1586 1587 1588 1589 1590 1591 1592 1594 1595 1596 1597
1546 1549 1551 1552 1554 1556 1557 1559 1561 1562 1563 1564 1566 1567 1568 1569 1569 1570 1571 1572 1573 1573 1574 1574 1575 1576 1577 1578 1579 1580 1581 1583 1584 1585 1587 1588 1589 1590 1591 1592 1593 1594 1595
1545 1548 1549 1551 1553 1555 1557 1558 1559 1561 1562 1564 1565 1566 1567 1568 1569 1570 1571 1572 1572 1573 1573 1573 1574 1575 1575 1576 1577 1578 1580 1581 1582 1583 1585 1586 1587 1588 1589 1590 1591 1592 1593
1544 1547 1548 1550 1552 1554 1556 1557 1559 1560 1562 1563 1565 1566 1567 1567 1568 1569 1570 1571 1572 1572 1573 1573 1573 1574 1574 1575 1576 1577 1578 1579 1580 1581 1582 1584 1585 1586 1587 1588 1589 1590 1591
1543 1546 1547 1549 1551 1553 1555 1556 1558 1560 1561 1563 1564 1565 1566 1568 1567 1568 1569 1570 1571 1571 1572 1572 1572 1573 1573 1574 1575 1575 1576 1577 1578 1579 1580 1581 1582 1583 1584 1585 1586 1587 1588
1541 1544 1546 1548 1550 1552 1553 1555 1557 1559 1560 1562 1563 1565 1565 1565 1566 1568 1568 1569 1570 1570 1571 1571 1571 1572 1572 1573 1573 1574 1575 1575 1576 1577 1578 1579 1580 1581 1582 1582 1583 1584 1585
1540 1543 1545 1547 1549 1551 1552 1554 1556 1558 1559 1561 1562 1563 1564 1565 1566 1567 1568 1568 1569 1569 1570 1571 1571 1571 1571 1572 1572 1573 1573 1574 1575 1575 1576 1576 1577 1578 1579 1579 1580 1581 1582
1538 1541 1543 1545 1547 1549 1551 1552 1554 1556 1558 1559 1561 1562 1563 1564 1565 1566 1566 1567 1567 1568 1568 1569 1569 1570 1570 1570 1571 1571 1572 1572 1573 1573 1573 1574 1574 1575 1575 1576 1577 1577 1578
1537 1539 1541 1544 1546 1548 1549 1551 1553 1554 1556 1557 1559 1560 1562 1563 1563 1564 1564 1565 1565 1566 1566 1567 1568 1568 1569 1569 1569 1570 1570 1571 1571 1571 1571 1571 1572 1572 1572 1573 1573 1574 1575
1534 1537 1540 1542 1544 1546 1548 1549 1551 1553 1554 1556 1557 1559 1560 1561 1562 1562 1563 1563 1564 1564 1565 1565 1565 1566 1567 1567 1567 1568 1568 1569 1569 1569 1569 1569 1569 1569 1570 1570 1570 1571 1571
1532 1535 1538 1540 1542 1544 1546 1548 1549 1551 1552 1553 1555 1556 1557 1559 1560 1561 1561 1562 1562 1562 1562 1563 1563 1564 1564 1565 1565 1566 1566 1566 1566 1566 1566 1566 1566 1566 1567 1567 1567 1567 1568
1531 1533 1536 1538 1540 1542 1544 1546 1547 1549 1550 1551 1553 1554 1555 1556 1558 1558 1559 1560 1561 1560 1560 1561 1561 1561 1562 1562 1563 1563 1563 1563 1563 1563 1564 1564 1563 1563 1564 1564 1564 1564 1564
1529 1531 1533 1536 1538 1540 1541 1543 1545 1546 1548 1549 1550 1551 1553 1554 1555 1556 1557 1557 1558 1558 1558 1558 1559 1560 1560 1560 1560 1560 1560 1560 1560 1560 1560 1560 1560 1560 1560 1560 1560 1560 1560
1526 1529 1531 1533 1535 1537 1539 1541 1542 1544 1545 1547 1548 1549 1550 1551 1552 1553 1554 1555 1555 1556 1556 1556 1557 1557 1557 1558 1557 1557 1557 1557 1557 1557 1557 1557 1557 1557 1557 1557 1557 1556 1556
1524 1526 1528 1531 1533 1535 1537 1538 1540 1541 1542 1544 1545 1546 1547 1548 1549 1550 1551 1551 1552 1553 1553 1553 1553 1554 1554 1554 1554 1554 1554 1553 1553 1553 1553 1553 1553 1553 1553 1553 1552 1552 1552
1521 1524 1526 1528 1530 1532 1534 1535 1537 1538 1540 1541 1542 1543 1544 1545 1545 1546 1547 1548 1548 1549 1549 1549 1549 1550 1550 1550 1550 1549 1549 1549 1550 1549 1549 1549 1549 1549 1548 1548 1548 1547 1547
1518 1521 1523 1525 1527 1529 1531 1533 1534 1535 1536 1538 1539 1540 1540 1541 1542 1542 1543 1544 1545 1545 1545 1545 1545 1546 1546 1546 1546 1545 1545 1545 1545 1545 1545 1544 1544 1544 1543 1543 1543 1542 1542
1516 1518 1520 1522 1524 1526 1528 1529 1531 1532 1533 1534 1535 1536 1537 1537 1538 1539 1539 1540 1540 1540 1541 1541 1541 1541 1541 1541 1541 1541 1540 1540 1540 1540 1540 1539 1539 1538 1538 1537 1537 1537 1536
1513 1515 1517 1519 1521 1523 1524 1526 1528 1529 1530 1531 1531 1532 1533 1533 1534 1534 1535 1535 1536 1536 1536 1536 1536 1536 1536 1537 1536 1536 1536 1535 1534 1535 1534 1533 1533 1532 1532 1531 1531 1531 1530
1511 1513 1515 1517 1518 1520 1521 1523 1524 1525 1526 1527 1528 1528 1529 1529 1529 1530 1530 1530 1530 1531 1531 1531 1530 1530 1531 1531 1531 1530 1530 1529 1528 1529 1528 1526 1527 1525 1526 1525 1525 1524 1523
1509 1510 1512 1514 1515 1517 1518 1519 1521 1521 1522 1523 1524 1524 1524 1525 1525 1525 1524 1524 1524 1524 1525 1525 1524 1524 1525 1525 1525 1524 1524 1523 1522 1522 1522 1520 1519 1519 1519 1518 1518 1517 1517
1507 1508 1509 1511 1512 1513 1514 1516 1517 1518 1518 1519 1520 1520 1520 1520 1520 1520 1520 1519 1519 1519 1519 1518 1518 1518 1518 1518 1518 1518 1517 1516 1514 1514 1515 1514 1512 1511 1511 1510 1510 1510 1509
1505 1506 1507 1508 1509 1510 1511 1513 1514 1515 1515 1515 1516 1516 1516 1516 1515 1515 1515 1514 1513 1513 1513 1512 1512 1512 1511 1511 1511 1511 1510 1509 1508 1507 1507 1507 1505 1505 1502 1502 1502 1502 1501